CPA930 RPLL-VHHH

Flight info

Callsign CPA930
Flight time 1h 37m
Altitude 40000
Route CAB2V CAB A461 NOMAN V533 BETTY
Aircraft A359/H-SDE2E3GHIJ3J4J5LM1ORWXY/LB1D1

Departure

Time 2026-05-05 20:11
Airport Ninoy Aquino International Airport (RPLL)

Arrival

Time 2026-05-05 21:48
Airport Hong Kong International Airport (VHHH)
Time Latitude Longitude Altitude Speed Heading
2026-05-05 19:37 14.51848 121.01316 64 ft 0 kts 45°
2026-05-05 19:56 14.51836 121.01304 75 ft 4 kts 45°
2026-05-05 19:56 14.51817 121.01285 64 ft 4 kts 45°
2026-05-05 19:57 14.51801 121.01269 64 ft 4 kts 59°
2026-05-05 19:57 14.51797 121.01245 64 ft 4 kts 113°
2026-05-05 19:57 14.51810 121.01224 64 ft 2 kts 135°
2026-05-05 19:57 14.51796 121.01239 64 ft 4 kts 135°
2026-05-05 19:58 14.51781 121.01255 64 ft 0 kts 135°
2026-05-05 20:01 14.51779 121.01257 75 ft 2 kts 135°
2026-05-05 20:01 14.51756 121.01281 67 ft 3 kts 135°
2026-05-05 20:01 14.51741 121.01295 64 ft 0 kts 135°
2026-05-05 20:02 14.51735 121.01302 66 ft 7 kts 135°
2026-05-05 20:02 14.51689 121.01324 70 ft 7 kts 188°
2026-05-05 20:02 14.51652 121.01310 67 ft 10 kts 185°
2026-05-05 20:02 14.51559 121.01380 66 ft 16 kts 135°
2026-05-05 20:03 14.51478 121.01463 69 ft 17 kts 135°
2026-05-05 20:03 14.51399 121.01545 64 ft 16 kts 135°
2026-05-05 20:03 14.51316 121.01630 66 ft 17 kts 135°
2026-05-05 20:03 14.51229 121.01719 64 ft 18 kts 135°
2026-05-05 20:04 14.51143 121.01808 64 ft 17 kts 135°
2026-05-05 20:04 14.51064 121.01889 64 ft 15 kts 135°
2026-05-05 20:04 14.51032 121.01912 67 ft 4 kts 162°
2026-05-05 20:04 14.50989 121.01890 66 ft 11 kts 231°
2026-05-05 20:05 14.50937 121.01800 67 ft 16 kts 239°
2026-05-05 20:05 14.50874 121.01693 65 ft 18 kts 239°
2026-05-05 20:05 14.50811 121.01578 69 ft 19 kts 240°
2026-05-05 20:05 14.50743 121.01454 64 ft 20 kts 240°
2026-05-05 20:06 14.50671 121.01324 64 ft 21 kts 240°
2026-05-05 20:06 14.50596 121.01189 65 ft 22 kts 240°
2026-05-05 20:06 14.50541 121.01089 69 ft 0 kts 240°
2026-05-05 20:07 14.50536 121.01079 64 ft 8 kts 240°
2026-05-05 20:07 14.50500 121.01014 64 ft 11 kts 240°
2026-05-05 20:07 14.50450 121.00926 66 ft 17 kts 240°
2026-05-05 20:07 14.50380 121.00801 64 ft 23 kts 240°
2026-05-05 20:08 14.50293 121.00647 64 ft 27 kts 240°
2026-05-05 20:08 14.50196 121.00473 63 ft 28 kts 240°
2026-05-05 20:08 14.50097 121.00295 67 ft 29 kts 240°
2026-05-05 20:08 14.50005 121.00130 64 ft 26 kts 240°
2026-05-05 20:09 14.49949 121.00028 65 ft 9 kts 240°
2026-05-05 20:09 14.49912 120.99979 68 ft 9 kts 212°
2026-05-05 20:09 14.49851 120.99979 71 ft 10 kts 160°
2026-05-05 20:09 14.49809 121.00030 67 ft 10 kts 102°
2026-05-05 20:10 14.49820 121.00069 68 ft 1 kts 58°
2026-05-05 20:10 14.49861 121.00139 64 ft 39 kts 59°
2026-05-05 20:10 14.50111 121.00593 64 ft 104 kts 60°
2026-05-05 20:11 14.50565 121.01411 85 ft 157 kts 60°
2026-05-05 20:11 14.51120 121.02390 691 ft 151 kts 60°
2026-05-05 20:11 14.51678 121.03341 1211 ft 164 kts 58°
2026-05-05 20:11 14.52287 121.04432 1463 ft 186 kts 60°
2026-05-05 20:12 14.52966 121.05686 1676 ft 213 kts 60°
2026-05-05 20:12 14.53740 121.07103 1895 ft 239 kts 60°
2026-05-05 20:12 14.54592 121.08653 2359 ft 253 kts 60°
2026-05-05 20:12 14.55461 121.10225 3067 ft 256 kts 61°
2026-05-05 20:13 14.56379 121.11806 3828 ft 258 kts 57°
2026-05-05 20:13 14.57717 121.13061 4482 ft 267 kts 29°
2026-05-05 20:13 14.59545 121.13498 5145 ft 275 kts
2026-05-05 20:13 14.61474 121.13517 5834 ft 278 kts
2026-05-05 20:14 14.63426 121.13501 6539 ft 281 kts
2026-05-05 20:14 14.65387 121.13495 7198 ft 284 kts
2026-05-05 20:14 14.67382 121.13498 7874 ft 287 kts
2026-05-05 20:14 14.69394 121.13479 8577 ft 292 kts 358°
2026-05-05 20:15 14.71397 121.13068 9268 ft 297 kts 344°
2026-05-05 20:15 14.73379 121.12381 9932 ft 303 kts 342°
2026-05-05 20:15 14.75394 121.11642 10416 ft 314 kts 341°
2026-05-05 20:15 14.77487 121.10878 10684 ft 332 kts 342°
2026-05-05 20:16 14.79725 121.10067 10927 ft 349 kts 342°
2026-05-05 20:16 14.82063 121.09224 11168 ft 364 kts 341°
2026-05-05 20:16 14.84503 121.08344 11423 ft 377 kts 341°
2026-05-05 20:16 14.87008 121.07443 11825 ft 383 kts 341°
2026-05-05 20:17 14.89571 121.06632 12325 ft 386 kts 349°
2026-05-05 20:17 14.92243 121.06290 12851 ft 387 kts 356°
2026-05-05 20:17 14.94943 121.06101 13365 ft 390 kts 357°
2026-05-05 20:17 14.97664 121.05924 13865 ft 392 kts 357°
2026-05-05 20:18 15.00402 121.05744 14281 ft 395 kts 356°
2026-05-05 20:18 15.03123 121.05560 14715 ft 398 kts 356°
2026-05-05 20:18 15.05900 121.05370 15144 ft 400 kts 356°
2026-05-05 20:18 15.08687 121.05179 15559 ft 403 kts 356°
2026-05-05 20:19 15.11491 121.04985 15990 ft 405 kts 356°
2026-05-05 20:19 15.14318 121.04789 16403 ft 408 kts 356°
2026-05-05 20:19 15.17161 121.04592 16818 ft 411 kts 356°
2026-05-05 20:19 15.20026 121.04393 17228 ft 413 kts 356°
2026-05-05 20:20 15.22908 121.04193 17630 ft 416 kts 356°
2026-05-05 20:20 15.25810 121.03991 18032 ft 418 kts 356°
2026-05-05 20:20 15.28727 121.03789 18394 ft 421 kts 356°
2026-05-05 20:20 15.31664 121.03585 18715 ft 424 kts 356°
2026-05-05 20:21 15.34582 121.03382 19031 ft 427 kts 356°
2026-05-05 20:21 15.37553 121.03175 19384 ft 429 kts 355°
2026-05-05 20:21 15.40550 121.02967 19716 ft 431 kts 355°
2026-05-05 20:21 15.43557 121.02756 20044 ft 434 kts 355°
2026-05-05 20:22 15.46532 121.02397 20355 ft 436 kts 349°
2026-05-05 20:22 15.49469 121.01587 20683 ft 437 kts 339°
2026-05-05 20:22 15.52279 121.00364 21024 ft 439 kts 334°
2026-05-05 20:22 15.55048 120.98974 21362 ft 441 kts 332°
2026-05-05 20:23 15.57755 120.97525 21706 ft 443 kts 331°
2026-05-05 20:23 15.60494 120.96025 22062 ft 446 kts 331°
2026-05-05 20:23 15.63245 120.94517 22429 ft 448 kts 331°
2026-05-05 20:23 15.66029 120.93002 22776 ft 450 kts 331°
2026-05-05 20:24 15.68827 120.91493 23136 ft 453 kts 331°
2026-05-05 20:24 15.71604 120.90006 23503 ft 455 kts 331°
2026-05-05 20:24 15.74438 120.88494 23798 ft 458 kts 331°
2026-05-05 20:24 15.77285 120.86978 24118 ft 459 kts 331°
2026-05-05 20:25 15.80142 120.85458 24440 ft 461 kts 331°
2026-05-05 20:25 15.83001 120.83937 24771 ft 463 kts 331°
2026-05-05 20:25 15.85851 120.82419 25127 ft 465 kts 331°
2026-05-05 20:25 15.88746 120.80876 25478 ft 467 kts 331°
2026-05-05 20:26 15.91654 120.79325 25854 ft 469 kts 331°
2026-05-05 20:26 15.94562 120.77773 26236 ft 471 kts 331°
2026-05-05 20:26 15.97484 120.76214 26628 ft 474 kts 331°
2026-05-05 20:26 16.00389 120.74662 27048 ft 476 kts 330°
2026-05-05 20:27 16.03344 120.73084 27463 ft 477 kts 330°
2026-05-05 20:27 16.06316 120.71496 27844 ft 480 kts 330°
2026-05-05 20:27 16.09303 120.69899 28237 ft 483 kts 330°
2026-05-05 20:27 16.12302 120.68296 28621 ft 485 kts 330°
2026-05-05 20:28 16.15271 120.66707 28990 ft 487 kts 330°
2026-05-05 20:28 16.18306 120.65082 29360 ft 490 kts 330°
2026-05-05 20:28 16.21344 120.63455 29720 ft 492 kts 330°
2026-05-05 20:28 16.24404 120.61817 30040 ft 494 kts 330°
2026-05-05 20:29 16.27437 120.60193 30331 ft 496 kts 330°
2026-05-05 20:29 16.30521 120.58541 30626 ft 498 kts 330°
2026-05-05 20:29 16.33613 120.56888 30914 ft 499 kts 330°
2026-05-05 20:29 16.36713 120.55229 31179 ft 501 kts 330°
2026-05-05 20:30 16.39817 120.53565 31457 ft 502 kts 330°
2026-05-05 20:30 16.42889 120.51915 31768 ft 503 kts 330°
2026-05-05 20:30 16.46004 120.50243 32161 ft 500 kts 330°
2026-05-05 20:30 16.49089 120.48586 32583 ft 498 kts 330°
2026-05-05 20:31 16.52177 120.46927 32995 ft 496 kts 330°
2026-05-05 20:31 16.55241 120.45281 33403 ft 494 kts 330°
2026-05-05 20:31 16.58252 120.43663 33785 ft 493 kts 330°
2026-05-05 20:31 16.61301 120.42022 34129 ft 491 kts 330°
2026-05-05 20:32 16.64352 120.40381 34388 ft 491 kts 330°
2026-05-05 20:32 16.67383 120.38750 34680 ft 489 kts 330°
2026-05-05 20:32 16.70342 120.37085 34975 ft 486 kts 326°
2026-05-05 20:32 16.73123 120.35073 35231 ft 483 kts 319°
2026-05-05 20:33 16.75605 120.32730 35492 ft 480 kts 313°
2026-05-05 20:33 16.77967 120.30271 35754 ft 479 kts 312°
2026-05-05 20:33 16.80288 120.27759 35974 ft 478 kts 311°
2026-05-05 20:33 16.82577 120.25235 36229 ft 478 kts 311°
2026-05-05 20:34 16.84827 120.22738 36476 ft 477 kts 311°
2026-05-05 20:34 16.87109 120.20208 36712 ft 477 kts 311°
2026-05-05 20:34 16.89386 120.17690 36950 ft 476 kts 311°
2026-05-05 20:34 16.91662 120.15180 37182 ft 476 kts 311°
2026-05-05 20:35 16.93942 120.12672 37409 ft 475 kts 311°
2026-05-05 20:35 16.96217 120.10172 37640 ft 474 kts 311°
2026-05-05 20:35 16.98487 120.07677 37901 ft 473 kts 311°
2026-05-05 20:35 17.00727 120.05216 38106 ft 472 kts 311°
2026-05-05 20:36 17.02989 120.02730 38389 ft 470 kts 311°
2026-05-05 20:36 17.05242 120.00252 38607 ft 469 kts 311°
2026-05-05 20:36 17.07496 119.97771 38746 ft 469 kts 311°
2026-05-05 20:36 17.09748 119.95292 38882 ft 469 kts 311°
2026-05-05 20:37 17.11990 119.92822 39016 ft 469 kts 311°
2026-05-05 20:37 17.16460 119.87896 39272 ft 468 kts 311°
2026-05-05 20:37 17.18700 119.85426 39387 ft 468 kts 312°
2026-05-05 20:38 17.20941 119.82954 39516 ft 467 kts 312°
2026-05-05 20:38 17.23154 119.80511 39633 ft 467 kts 312°
2026-05-05 20:38 17.25393 119.78039 39751 ft 467 kts 312°
2026-05-05 20:39 17.29869 119.73095 39879 ft 468 kts 312°
2026-05-05 20:39 17.34335 119.68159 39877 ft 468 kts 312°
2026-05-05 20:40 17.38818 119.63201 39876 ft 468 kts 312°
2026-05-05 20:40 17.43302 119.58237 39875 ft 468 kts 312°
2026-05-05 20:41 17.47744 119.53314 39876 ft 468 kts 312°
2026-05-05 20:41 17.52211 119.48362 39875 ft 467 kts 312°
2026-05-05 20:42 17.55928 119.44238 39873 ft 467 kts 312°
2026-05-05 20:42 17.60402 119.39270 39876 ft 467 kts 312°
2026-05-05 20:43 17.64848 119.34330 39875 ft 467 kts 312°
2026-05-05 20:43 17.69312 119.29366 39875 ft 467 kts 312°
2026-05-05 20:44 17.73775 119.24399 39878 ft 467 kts 312°
2026-05-05 20:44 17.78231 119.19437 39876 ft 466 kts 312°
2026-05-05 20:45 17.84869 119.12036 39875 ft 465 kts 312°
2026-05-05 20:45 17.89311 119.07079 39875 ft 465 kts 312°
2026-05-05 20:46 17.93755 119.02116 39875 ft 465 kts 312°
2026-05-05 20:46 17.98198 118.97150 39878 ft 465 kts 312°
2026-05-05 20:47 18.02634 118.92193 39878 ft 465 kts 312°
2026-05-05 20:47 18.07047 118.87249 39878 ft 465 kts 312°
2026-05-05 20:48 18.11480 118.82279 39895 ft 465 kts 311°
2026-05-05 20:48 18.15880 118.77346 39881 ft 464 kts 311°
2026-05-05 20:49 18.19425 118.73367 39881 ft 464 kts 311°
2026-05-05 20:49 18.23837 118.68411 39881 ft 464 kts 311°
2026-05-05 20:50 18.28249 118.63452 39878 ft 464 kts 311°
2026-05-05 20:50 18.32655 118.58496 39878 ft 463 kts 311°
2026-05-05 20:51 18.37038 118.53562 39878 ft 463 kts 311°
2026-05-05 20:51 18.41445 118.48598 39878 ft 463 kts 311°
2026-05-05 20:52 18.45826 118.43657 39878 ft 463 kts 311°
2026-05-05 20:52 18.50233 118.38685 39881 ft 463 kts 311°
2026-05-05 20:53 18.54599 118.33753 39880 ft 461 kts 311°
2026-05-05 20:53 18.58973 118.28810 39880 ft 461 kts 311°
2026-05-05 20:54 18.63345 118.23864 39885 ft 461 kts 311°
2026-05-05 20:54 18.67723 118.18908 39880 ft 461 kts 311°
2026-05-05 20:55 18.72069 118.13985 39885 ft 461 kts 311°
2026-05-05 20:55 18.76448 118.09018 39882 ft 461 kts 311°
2026-05-05 20:56 18.80795 118.04085 39888 ft 461 kts 311°
2026-05-05 20:56 18.85168 117.99119 39887 ft 461 kts 311°
2026-05-05 20:57 18.89540 117.94149 39886 ft 460 kts 311°
2026-05-05 20:57 18.93867 117.89226 39886 ft 460 kts 311°
2026-05-05 20:58 18.98229 117.84260 39887 ft 460 kts 311°
2026-05-05 20:58 19.02592 117.79289 39890 ft 460 kts 311°
2026-05-05 20:59 19.06924 117.74356 39889 ft 460 kts 311°
2026-05-05 20:59 19.11273 117.69387 39892 ft 460 kts 311°
2026-05-05 21:00 19.15626 117.64411 39897 ft 460 kts 311°
2026-05-05 21:00 19.19970 117.59443 39897 ft 460 kts 311°
2026-05-05 21:01 19.24293 117.54497 39895 ft 459 kts 311°
2026-05-05 21:01 19.28631 117.49528 39895 ft 459 kts 311°
2026-05-05 21:02 19.32965 117.44560 39898 ft 460 kts 311°
2026-05-05 21:02 19.37319 117.39565 39897 ft 460 kts 311°
2026-05-05 21:03 19.41642 117.34601 39901 ft 460 kts 311°
2026-05-05 21:03 19.45990 117.29604 39903 ft 460 kts 311°
2026-05-05 21:04 19.50340 117.24602 39900 ft 461 kts 311°
2026-05-05 21:04 19.54684 117.19602 39900 ft 461 kts 311°
2026-05-05 21:05 19.58999 117.14631 39901 ft 461 kts 311°
2026-05-05 21:05 19.63333 117.09633 39902 ft 459 kts 311°
2026-05-05 21:06 19.67663 117.04636 39907 ft 457 kts 311°
2026-05-05 21:06 19.71953 116.99681 39906 ft 457 kts 311°
2026-05-05 21:07 19.76256 116.94706 39906 ft 457 kts 311°
2026-05-05 21:07 19.80558 116.89728 39905 ft 457 kts 311°
2026-05-05 21:08 19.84845 116.84763 39908 ft 458 kts 311°
2026-05-05 21:08 19.89160 116.79762 39911 ft 458 kts 311°
2026-05-05 21:09 19.93448 116.74789 39911 ft 458 kts 311°
2026-05-05 21:09 19.97762 116.69773 39910 ft 458 kts 310°
2026-05-05 21:10 20.01378 116.64289 39912 ft 456 kts 298°
2026-05-05 21:10 20.04420 116.58358 39914 ft 456 kts 297°
2026-05-05 21:11 20.07359 116.52370 39914 ft 456 kts 297°
2026-05-05 21:11 20.10277 116.46407 39914 ft 457 kts 297°
2026-05-05 21:12 20.13227 116.40405 39916 ft 457 kts 297°
2026-05-05 21:12 20.16183 116.34403 39917 ft 457 kts 297°
2026-05-05 21:13 20.19117 116.28442 39917 ft 457 kts 297°
2026-05-05 21:13 20.22071 116.22434 39917 ft 457 kts 297°
2026-05-05 21:14 20.25006 116.16455 39922 ft 458 kts 297°
2026-05-05 21:14 20.27959 116.10434 39923 ft 458 kts 297°
2026-05-05 21:15 20.30912 116.04408 39925 ft 458 kts 297°
2026-05-05 21:15 20.33846 115.98426 39925 ft 458 kts 297°
2026-05-05 21:16 20.36794 115.92391 39922 ft 458 kts 297°
2026-05-05 21:16 20.39725 115.86383 39922 ft 459 kts 297°
2026-05-05 21:17 20.42673 115.80337 39924 ft 458 kts 297°
2026-05-05 21:17 20.45608 115.74313 39925 ft 457 kts 297°
2026-05-05 21:18 20.48520 115.68332 39925 ft 457 kts 297°
2026-05-05 21:18 20.51455 115.62297 39926 ft 457 kts 297°
2026-05-05 21:19 20.54449 115.56307 39927 ft 458 kts 301°
2026-05-05 21:19 20.58432 115.51047 39927 ft 460 kts 312°
2026-05-05 21:20 20.62961 115.46194 39927 ft 461 kts 314°
2026-05-05 21:20 20.67576 115.41414 39927 ft 461 kts 314°
2026-05-05 21:21 20.72146 115.36667 39927 ft 461 kts 314°
2026-05-05 21:21 20.76738 115.31865 39927 ft 461 kts 314°
2026-05-05 21:22 20.79022 115.29468 39673 ft 457 kts 314°
2026-05-05 21:22 20.81292 115.27085 39020 ft 458 kts 314°
2026-05-05 21:22 20.83569 115.24692 38247 ft 460 kts 313°
2026-05-05 21:22 20.85863 115.22279 37367 ft 464 kts 313°
2026-05-05 21:23 20.88167 115.19855 36508 ft 467 kts 313°
2026-05-05 21:23 20.90494 115.17408 35682 ft 470 kts 313°
2026-05-05 21:23 20.92830 115.14951 34873 ft 472 kts 313°
2026-05-05 21:23 20.95179 115.12477 34083 ft 474 kts 313°
2026-05-05 21:24 20.97508 115.10024 33208 ft 476 kts 313°
2026-05-05 21:24 20.99879 115.07524 32294 ft 478 kts 313°
2026-05-05 21:24 21.02250 115.05024 31401 ft 480 kts 313°
2026-05-05 21:24 21.04640 115.02509 30453 ft 482 kts 313°
2026-05-05 21:25 21.07045 114.99970 29340 ft 487 kts 314°
2026-05-05 21:25 21.09456 114.97425 28413 ft 486 kts 314°
2026-05-05 21:25 21.11862 114.94884 27640 ft 483 kts 314°
2026-05-05 21:25 21.14217 114.92396 26929 ft 478 kts 314°
2026-05-05 21:26 21.16583 114.89896 26248 ft 474 kts 314°
2026-05-05 21:26 21.18924 114.87420 25555 ft 471 kts 314°
2026-05-05 21:26 21.21248 114.84962 24933 ft 466 kts 314°
2026-05-05 21:26 21.23523 114.82553 24316 ft 462 kts 314°
2026-05-05 21:27 21.25810 114.80131 23682 ft 458 kts 314°
2026-05-05 21:27 21.28053 114.77755 23297 ft 448 kts 314°
2026-05-05 21:27 21.30255 114.75422 22729 ft 441 kts 314°
2026-05-05 21:27 21.32427 114.73119 22052 ft 438 kts 314°
2026-05-05 21:28 21.34587 114.70826 21367 ft 434 kts 314°
2026-05-05 21:28 21.36731 114.68550 20703 ft 431 kts 314°
2026-05-05 21:28 21.38859 114.66290 20071 ft 428 kts 314°
2026-05-05 21:28 21.40947 114.64072 19462 ft 425 kts 314°
2026-05-05 21:29 21.43043 114.61845 18859 ft 422 kts 314°
2026-05-05 21:29 21.45123 114.59633 18233 ft 418 kts 314°
2026-05-05 21:29 21.47172 114.57480 17171 ft 407 kts 315°
2026-05-05 21:29 21.49430 114.55783 16510 ft 393 kts 331°
2026-05-05 21:30 21.51912 114.54744 16101 ft 373 kts 338°
2026-05-05 21:30 21.54336 114.53896 15465 ft 360 kts 339°
2026-05-05 21:30 21.56705 114.53082 14651 ft 355 kts 339°
2026-05-05 21:30 21.59046 114.52274 13866 ft 351 kts 338°
2026-05-05 21:31 21.60546 114.51641 13428 ft 348 kts 330°
2026-05-05 21:31 21.63051 114.49570 12774 ft 339 kts 311°
2026-05-05 21:31 21.64652 114.47741 12459 ft 333 kts 309°
2026-05-05 21:31 21.66219 114.45911 12215 ft 332 kts 309°
2026-05-05 21:32 21.67279 114.44674 12048 ft 332 kts 309°
2026-05-05 21:32 21.68829 114.42872 11820 ft 331 kts 310°
2026-05-05 21:32 21.70394 114.41057 11587 ft 330 kts 310°
2026-05-05 21:32 21.71960 114.39243 11381 ft 329 kts 310°
2026-05-05 21:33 21.73516 114.37442 11152 ft 327 kts 310°
2026-05-05 21:33 21.75062 114.35651 10930 ft 326 kts 310°
2026-05-05 21:33 21.76600 114.33871 10760 ft 319 kts 309°
2026-05-05 21:33 21.78083 114.32158 10596 ft 307 kts 309°
2026-05-05 21:34 21.79496 114.30524 10425 ft 296 kts 309°
2026-05-05 21:34 21.80877 114.28924 10200 ft 288 kts 309°
2026-05-05 21:34 21.82234 114.27350 9922 ft 286 kts 309°
2026-05-05 21:34 21.83582 114.25785 9654 ft 284 kts 309°
2026-05-05 21:35 21.84928 114.24222 9442 ft 284 kts 309°
2026-05-05 21:35 21.86271 114.22664 9237 ft 283 kts 309°
2026-05-05 21:35 21.87611 114.21107 9041 ft 282 kts 310°
2026-05-05 21:35 21.88925 114.19535 8826 ft 281 kts 306°
2026-05-05 21:36 21.89985 114.17801 8626 ft 280 kts 297°
2026-05-05 21:36 21.90941 114.15974 8443 ft 279 kts 296°
2026-05-05 21:36 21.91877 114.14147 8246 ft 277 kts 296°
2026-05-05 21:36 21.92812 114.12327 8044 ft 278 kts 296°
2026-05-05 21:37 21.93749 114.10503 7845 ft 278 kts 297°
2026-05-05 21:37 21.94689 114.08679 7645 ft 279 kts 297°
2026-05-05 21:37 21.95634 114.06848 7446 ft 279 kts 297°
2026-05-05 21:37 21.96568 114.05041 7251 ft 277 kts 296°
2026-05-05 21:38 21.97505 114.03226 7051 ft 275 kts 296°
2026-05-05 21:38 21.98434 114.01426 6858 ft 275 kts 296°
2026-05-05 21:38 21.99368 113.99614 6660 ft 276 kts 296°
2026-05-05 21:38 22.00288 113.97831 6465 ft 275 kts 296°
2026-05-05 21:39 22.01216 113.96036 6269 ft 273 kts 296°
2026-05-05 21:39 22.02140 113.94241 6066 ft 273 kts 296°
2026-05-05 21:39 22.03065 113.92442 5872 ft 274 kts 297°
2026-05-05 21:39 22.03980 113.90666 5689 ft 274 kts 296°
2026-05-05 21:40 22.04908 113.88860 5500 ft 275 kts 297°
2026-05-05 21:40 22.05833 113.87063 5277 ft 274 kts 296°
2026-05-05 21:40 22.06764 113.85258 5104 ft 274 kts 296°
2026-05-05 21:40 22.07678 113.83473 4925 ft 268 kts 297°
2026-05-05 21:41 22.08568 113.81746 4782 ft 257 kts 297°
2026-05-05 21:41 22.09409 113.80118 4645 ft 246 kts 296°
2026-05-05 21:41 22.10246 113.78548 4520 ft 236 kts 301°
2026-05-05 21:41 22.11376 113.77305 4378 ft 229 kts 326°
2026-05-05 21:42 22.12730 113.76529 4287 ft 218 kts 333°
2026-05-05 21:42 22.14099 113.75853 4083 ft 214 kts 335°
2026-05-05 21:42 22.15439 113.75193 3860 ft 210 kts 335°
2026-05-05 21:42 22.16762 113.74542 3653 ft 212 kts 335°
2026-05-05 21:43 22.18149 113.73856 3590 ft 221 kts 335°
2026-05-05 21:43 22.19531 113.73170 3527 ft 217 kts 335°
2026-05-05 21:43 22.20922 113.72646 3331 ft 208 kts 354°
2026-05-05 21:43 22.22298 113.72939 3135 ft 207 kts 31°
2026-05-05 21:44 22.23552 113.73756 3062 ft 209 kts 36°
2026-05-05 21:44 22.24734 113.74605 2887 ft 201 kts 36°
2026-05-05 21:44 22.25891 113.75451 2591 ft 198 kts 39°
2026-05-05 21:44 22.26789 113.76511 2402 ft 190 kts 62°
2026-05-05 21:45 22.27273 113.77853 2317 ft 189 kts 78°
2026-05-05 21:45 22.27638 113.79176 2088 ft 184 kts 75°
2026-05-05 21:45 22.28074 113.80461 1834 ft 180 kts 72°
2026-05-05 21:45 22.28475 113.81694 1607 ft 168 kts 73°
2026-05-05 21:46 22.28840 113.82837 1394 ft 158 kts 73°
2026-05-05 21:46 22.29193 113.83928 1181 ft 150 kts 72°
2026-05-05 21:46 22.29527 113.84960 996 ft 142 kts 72°
2026-05-05 21:46 22.29847 113.85952 814 ft 139 kts 72°
2026-05-05 21:47 22.30168 113.86947 640 ft 141 kts 72°
2026-05-05 21:47 22.30487 113.87941 429 ft 139 kts 72°
2026-05-05 21:47 22.30810 113.88933 258 ft 140 kts 72°
2026-05-05 21:47 22.31134 113.89908 100 ft 138 kts 71°
2026-05-05 21:48 22.31444 113.90871 42 ft 125 kts 70°
2026-05-05 21:48 22.31656 113.91546 42 ft 65 kts 71°
2026-05-05 21:48 22.31741 113.91811 42 ft 22 kts 71°
2026-05-05 21:48 22.31791 113.91970 40 ft 22 kts 76°
2026-05-05 21:49 22.31793 113.92126 42 ft 14 kts 96°
2026-05-05 21:49 22.31781 113.92209 42 ft 10 kts 101°
2026-05-05 21:49 22.31769 113.92277 42 ft 9 kts 101°
2026-05-05 21:49 22.31766 113.92290 42 ft 0 kts 101°
2026-05-05 21:50 22.31764 113.92305 42 ft 4 kts 101°
2026-05-05 21:50 22.31745 113.92386 40 ft 13 kts 114°
2026-05-05 21:50 22.31680 113.92436 42 ft 9 kts 158°
2026-05-05 21:50 22.31625 113.92476 41 ft 10 kts 125°
2026-05-05 21:51 22.31589 113.92549 41 ft 12 kts 117°
2026-05-05 21:51 22.31551 113.92629 40 ft 8 kts 116°
2026-05-05 21:51 22.31535 113.92655 41 ft 6 kts 133°
2026-05-05 21:51 22.31491 113.92655 41 ft 8 kts 199°
2026-05-05 21:52 22.31437 113.92629 41 ft 4 kts 206°
2026-05-05 21:52 22.31435 113.92628 41 ft 0 kts 205°